Date String (YYYY-MM-DD hh:mm:ss) UTC,Instrument flags,Ambient pressure (hPa),Sample flow (lpm),Bypass flow (lpm),Sample temperature (°C),Ambient temperature (°C),ASC tube jacket temperature (°C),LED temperature (°C),Box temperature (°C),Sample RH (%),Span deviation,Mass concentration (μg/m³),Mass concentration (μg/m³),Mass concentration (μg/m³)
DateTimeUTC,F1_M11,P_M11,Q1_M11,Q2_M11,T1_M11,T2_M11,T3_M11,T4_M11,T5_M11,U1_M11,ZSPAN_M11,X0_M11,X2_M11,X1_M11
2022-03-15 11:00:00,,0829.4,5.00,0.00,22.2,21.5,00.0,31.3,23.9,10.7,0000.0,0009.50,0003.65,0002.76
2022-03-15 11:01:00,,0829.4,4.98,0.00,22.2,21.5,00.0,31.3,23.9,10.6,0000.0,0009.29,0003.68,0002.77
2022-03-15 11:02:00,,0829.3,5.01,0.00,22.2,21.5,00.0,31.3,23.9,10.6,0000.0,0008.68,0003.71,0002.78
2022-03-15 11:03:00,,0829.4,5.01,0.00,22.2,21.5,00.0,31.3,23.9,10.6,0000.0,0008.57,0003.65,0002.75
2022-03-15 11:04:00,,0829.3,5.01,0.00,22.2,21.5,00.0,31.3,23.9,10.6,0000.0,0008.59,0003.61,0002.74
2022-03-15 11:05:00,,0829.2,4.98,0.00,22.2,21.5,00.0,31.3,23.9,10.5,0000.0,0008.41,0003.56,0002.72
2022-03-15 11:06:00,,0829.5,5.01,0.00,22.1,21.4,00.0,31.3,23.8,10.5,0000.0,0008.30,0003.53,0002.69
2022-03-15 11:07:00,,0829.2,5.01,0.00,22.1,21.4,00.0,31.2,23.8,10.5,0000.0,0008.20,0003.52,0002.68
2022-03-15 11:08:00,,0829.3,5.01,0.00,22.1,21.4,00.0,31.2,23.8,10.5,0000.0,0007.84,0003.54,0002.69
2022-03-15 11:09:00,,0829.3,5.00,0.00,22.1,21.3,00.0,31.2,23.8,10.4,0000.0,0007.16,0003.51,0002.69
2022-03-15 11:10:00,,0829.2,5.01,0.00,22.1,21.3,00.0,31.2,23.7,10.4,0000.0,0007.88,0003.52,0002.69
2022-03-15 11:11:00,,0829.2,4.98,0.00,22.0,21.3,00.0,31.2,23.7,10.3,0000.0,0007.60,0003.47,0002.66
2022-03-15 11:12:00,,0829.3,5.00,0.00,22.0,21.3,00.0,31.2,23.7,10.2,0000.0,0007.54,0003.46,0002.63
2022-03-15 11:13:00,,0829.2,5.01,0.00,22.0,21.3,00.0,31.2,23.7,10.1,0000.0,0007.49,0003.44,0002.60
2022-03-15 11:14:00,,0829.2,5.00,0.00,22.0,21.3,00.0,31.2,23.8,10.1,0000.0,0007.35,0003.43,0002.56
2022-03-15 11:15:00,,0829.3,4.99,0.00,22.1,21.4,00.0,31.2,23.8,10.0,0000.0,0007.39,0003.41,0002.53
2022-03-15 11:16:00,,0829.2,5.01,0.00,22.1,21.4,00.0,31.1,23.8,10.0,0000.0,0007.55,0003.38,0002.51
2022-03-15 11:17:00,,0829.2,5.01,0.00,22.1,21.5,00.0,31.1,23.9,10.0,0000.0,0008.06,0003.36,0002.49
2022-03-15 11:18:00,,0829.2,4.98,0.00,22.2,21.5,00.0,31.1,24.0,10.3,0000.0,0008.19,0003.40,0002.49
2022-03-15 11:19:00,,0829.2,5.01,0.00,22.2,21.6,00.0,31.2,24.0,10.4,0000.0,0008.18,0003.38,0002.48
2022-03-15 11:20:00,,0829.2,4.99,0.00,22.2,21.6,00.0,31.2,24.0,10.3,0000.0,0008.17,0003.37,0002.47
2022-03-15 11:21:00,,0829.2,5.01,0.00,22.2,21.6,00.0,31.2,24.1,10.2,0000.0,0007.66,0003.38,0002.46
2022-03-15 11:22:00,,0829.3,5.01,0.00,22.2,21.7,00.0,31.2,24.1,10.2,0000.0,0007.55,0003.37,0002.46
2022-03-15 11:23:00,,0829.2,4.99,0.00,22.3,21.7,00.0,31.2,24.1,10.2,0000.0,0008.05,0003.38,0002.47
2022-03-15 11:24:00,,0829.2,5.01,0.00,22.3,21.7,00.0,31.2,24.1,10.2,0000.0,0008.33,0003.41,0002.49
2022-03-15 11:25:00,,0829.2,5.00,0.00,22.3,21.7,00.0,31.2,24.1,10.1,0000.0,0008.79,0003.47,0002.51
2022-03-15 11:26:00,,0829.3,4.99,0.00,22.3,21.7,00.0,31.2,24.1,10.0,0000.0,0008.75,0003.48,0002.53
2022-03-15 11:27:00,,0829.4,5.01,0.00,22.3,21.8,00.0,31.2,24.1,10.0,0000.0,0008.39,0003.47,0002.55
2022-03-15 11:28:00,,0829.4,5.00,0.00,22.4,21.8,00.0,31.2,24.1,10.0,0000.0,0007.93,0003.49,0002.55
2022-03-15 11:29:00,,0829.2,4.99,0.00,22.4,21.8,00.0,31.2,24.2,09.9,0000.0,0008.12,0003.47,0002.55
2022-03-15 11:30:00,,0829.2,5.01,0.00,22.4,21.8,00.0,31.3,24.3,09.9,0000.0,0008.06,0003.44,0002.55
2022-03-15 11:31:00,,0829.3,5.01,0.00,22.4,21.8,00.0,31.3,24.3,09.9,0000.0,0008.07,0003.45,0002.56
2022-03-15 11:32:00,,0829.2,4.98,0.00,22.4,21.9,00.0,31.3,24.3,10.0,0000.0,0008.34,0003.46,0002.58
2022-03-15 11:33:00,,0829.2,5.01,0.00,22.5,21.9,00.0,31.3,24.3,09.9,0000.0,0008.90,0003.48,0002.58
2022-03-15 11:34:00,,0829.2,5.01,0.00,22.5,21.9,00.0,31.3,24.3,09.8,0000.0,0008.40,0003.47,0002.58
2022-03-15 11:35:00,,0829.2,4.99,0.00,22.5,21.9,00.0,31.3,24.3,09.8,0000.0,0008.20,0003.39,0002.56
2022-03-15 11:36:00,,0829.2,5.02,0.00,22.5,21.9,00.0,31.3,24.3,09.7,0000.0,0007.83,0003.32,0002.55
2022-03-15 11:37:00,,0829.2,5.01,0.00,22.5,21.9,00.0,31.4,24.3,09.7,0000.0,0007.80,0003.33,0002.56
2022-03-15 11:38:00,,0829.2,4.99,0.00,22.5,21.9,00.0,31.4,24.3,09.7,0000.0,0008.19,0003.35,0002.56
2022-03-15 11:39:00,,0829.2,5.00,0.00,22.5,21.9,00.0,31.4,24.3,09.7,0000.0,0008.29,0003.35,0002.55
2022-03-15 11:40:00,,0829.2,5.00,0.00,22.5,21.9,00.0,31.4,24.3,09.8,0000.0,0008.08,0003.34,0002.52
2022-03-15 11:41:00,,0829.2,5.00,0.00,22.5,21.9,00.0,31.4,24.3,09.8,0000.0,0008.14,0003.36,0002.52
2022-03-15 11:42:00,,0829.2,5.00,0.00,22.5,21.8,00.0,31.4,24.3,09.9,0000.0,0008.32,0003.39,0002.52
2022-03-15 11:43:00,,0829.2,5.01,0.00,22.5,21.8,00.0,31.4,24.3,10.0,0000.0,0008.34,0003.37,0002.53
2022-03-15 11:44:00,,0829.3,5.00,0.00,22.5,21.8,00.0,31.4,24.3,10.1,0000.0,0007.85,0003.39,0002.55
2022-03-15 11:45:00,,0829.2,4.98,0.00,22.5,21.8,00.0,31.4,24.2,10.0,0000.0,0008.06,0003.42,0002.57
2022-03-15 11:46:00,,0829.2,5.00,0.00,22.4,21.7,00.0,31.4,24.2,10.0,0000.0,0008.13,0003.47,0002.61
2022-03-15 11:47:00,,0829.3,5.00,0.00,22.4,21.6,00.0,31.4,24.1,09.8,0000.0,0008.08,0003.53,0002.63
2022-03-15 11:48:00,,0829.3,5.00,0.00,22.3,21.6,00.0,31.4,24.1,09.9,0000.0,0008.44,0003.57,0002.64
2022-03-15 11:49:00,,0829.2,5.00,0.00,22.3,21.5,00.0,31.4,24.0,09.7,0000.0,0008.84,0003.58,0002.65
2022-03-15 11:50:00,,0829.3,5.01,0.00,22.3,21.6,00.0,31.4,24.0,09.5,0000.0,0008.97,0003.60,0002.64
2022-03-15 11:51:00,,0829.2,5.01,0.00,22.3,21.6,00.0,31.4,24.0,09.5,0000.0,0008.91,0003.59,0002.64
2022-03-15 11:52:00,,0829.2,4.98,0.00,22.3,21.6,00.0,31.4,24.0,09.5,0000.0,0009.46,0003.57,0002.64
2022-03-15 11:53:00,,0829.2,5.00,0.00,22.3,21.6,00.0,31.4,24.1,09.6,0000.0,0009.91,0003.52,0002.58
2022-03-15 11:54:00,,0829.2,5.01,0.00,22.3,21.6,00.0,31.4,24.1,09.6,0000.0,0010.13,0003.44,0002.49
2022-03-15 11:55:00,,0829.2,5.00,0.00,22.3,21.6,00.0,31.4,24.1,09.6,0000.0,0010.13,0003.39,0002.39
2022-03-15 11:56:00,,0829.2,4.99,0.00,22.4,21.7,00.0,31.4,24.1,09.5,0000.0,0010.31,0003.30,0002.30
2022-03-15 11:57:00,,0829.2,5.01,0.00,22.4,21.7,00.0,31.4,24.1,09.5,0000.0,0010.43,0003.26,0002.20
2022-03-15 11:58:00,,0829.2,5.01,0.00,22.4,21.7,00.0,31.4,24.1,09.6,0000.0,0010.41,0003.20,0002.13
2022-03-15 11:59:00,,0829.2,5.00,0.00,22.4,21.7,00.0,31.4,24.1,09.5,0000.0,0010.46,0003.13,0002.08
